• In Russia
  • List of Countries
  • For 7 days
  • Water Temperature
  • Satellite Maps
  • Weather Map
  • Weather Widgets
  • user-avatar
    Login

    Hourly Weather Gotzis

    Today, 23 April, Tuesday

    Time Temperature Precipitation Wind Pressure Humidity
    00:00 +12°C° 0 mm 3 mps 710 mmHg 62%
    01:00 +11°C° 0 mm 3 mps 710 mmHg 62%
    02:00 +11°C° 0 mm 3 mps 710 mmHg 63%
    03:00 +12°C° 0 mm 2 mps 709 mmHg 64%
    04:00 +12°C° 0 mm 2 mps 709 mmHg 65%
    05:00 +13°C° 0 mm 2 mps 709 mmHg 66%
    06:00 +13°C° 0 mm 2 mps 709 mmHg 66%
    07:00 +14°C° 0 mm 2 mps 708 mmHg 67%
    08:00 +15°C° 0 mm 2 mps 708 mmHg 62%
    09:00 +17°C° 0 mm 2 mps 708 mmHg 56%
    10:00 +20°C° 0 mm 1 mps 708 mmHg 51%
    11:00 +21°C° 0 mm 1 mps 708 mmHg 47%
    12:00 +22°C° 0 mm 1 mps 708 mmHg 44%
    13:00 +24°C° 0 mm 1 mps 708 mmHg 40%
    14:00 +23°C° 0 mm 1 mps 708 mmHg 42%
    15:00 +23°C° 0 mm 1 mps 708 mmHg 44%
    16:00 +22°C° 0 mm 1 mps 708 mmHg 46%
    17:00 +20°C° 0 mm 2 mps 708 mmHg 52%
    18:00 +18°C° 0 mm 2 mps 708 mmHg 57%
    19:00 +16°C° 0 mm 2 mps 708 mmHg 63%
    20:00 +16°C° 0 mm 2 mps 708 mmHg 63%
    21:00 +15°C° 0 mm 2 mps 709 mmHg 63%
    22:00 +14°C° 0 mm 3 mps 709 mmHg 64%
    23:00 +13°C° 0 mm 3 mps 710 mmHg 65%

    Tomorrow, 24 April, Wednesday

    Time Temperature Precipitation Wind Pressure Humidity
    00:00 +13°C° 0 mm 3 mps 710 mmHg 66%
    01:00 +12°C° 0 mm 3 mps 710 mmHg 67%
    02:00 +13°C° 0 mm 2 mps 711 mmHg 68%
    03:00 +13°C° 0 mm 2 mps 711 mmHg 69%
    04:00 +12°C° 0 mm 2 mps 711 mmHg 70%
    05:00 +13°C° 0 mm 2 mps 711 mmHg 68%
    06:00 +14°C° 0 mm 2 mps 712 mmHg 66%
    07:00 +15°C° 0 mm 2 mps 712 mmHg 64%
    08:00 +17°C° 0 mm 2 mps 712 mmHg 56%
    09:00 +19°C° 0 mm 3 mps 713 mmHg 49%
    10:00 +22°C° 0 mm 3 mps 713 mmHg 41%
    11:00 +22°C° 0 mm 3 mps 713 mmHg 39%
    12:00 +23°C° 0 mm 4 mps 713 mmHg 38%
    13:00 +23°C° 0 mm 4 mps 713 mmHg 36%
    14:00 +23°C° 0 mm 4 mps 713 mmHg 36%
    15:00 +23°C° 0 mm 4 mps 713 mmHg 36%
    16:00 +23°C° 0 mm 4 mps 712 mmHg 35%
    17:00 +21°C° 0 mm 3 mps 713 mmHg 42%
    18:00 +19°C° 0 mm 3 mps 713 mmHg 48%
    19:00 +17°C° 0 mm 3 mps 714 mmHg 55%
    20:00 +16°C° 0 mm 3 mps 715 mmHg 60%
    21:00 +15°C° 0 mm 2 mps 716 mmHg 66%
    22:00 +13°C° 0 mm 2 mps 717 mmHg 72%
    23:00 +13°C° 0 mm 2 mps 717 mmHg 72%

    Day after tomorrow, 25 April, Thursday

    Time Temperature Precipitation Wind Pressure Humidity
    00:00 +12°C° 0 mm 2 mps 717 mmHg 73%
    01:00 +12°C° 0 mm 2 mps 718 mmHg 74%
    02:00 +11°C° 0 mm 3 mps 718 mmHg 71%
    03:00 +11°C° 0 mm 3 mps 718 mmHg 68%
    04:00 +11°C° 0 mm 3 mps 718 mmHg 65%
    05:00 +12°C° 0 mm 3 mps 717 mmHg 63%
    06:00 +13°C° 0 mm 3 mps 717 mmHg 60%
    07:00 +13°C° 0 mm 3 mps 717 mmHg 58%
    08:00 +17°C° 0 mm 3 mps 717 mmHg 52%
    09:00 +19°C° 0 mm 3 mps 717 mmHg 46%
    10:00 +22°C° 0 mm 3 mps 717 mmHg 40%
    11:00 +22°C° 0 mm 3 mps 717 mmHg 38%
    12:00 +24°C° 0 mm 3 mps 717 mmHg 36%
    13:00 +25°C° 0 mm 4 mps 717 mmHg 33%
    14:00 +25°C° 0 mm 4 mps 717 mmHg 35%
    15:00 +23°C° 0 mm 4 mps 716 mmHg 36%
    16:00 +23°C° 0 mm 5 mps 716 mmHg 37%
    17:00 +21°C° 0 mm 4 mps 716 mmHg 43%
    18:00 +19°C° 0 mm 4 mps 716 mmHg 50%
    19:00 +18°C° 0 mm 3 mps 715 mmHg 57%
    20:00 +17°C° 0 mm 3 mps 716 mmHg 59%
    21:00 +16°C° 0 mm 3 mps 716 mmHg 61%
    22:00 +14°C° 0 mm 3 mps 717 mmHg 63%
    23:00 +14°C° 0 mm 2 mps 717 mmHg 68%

    26 April, Friday

    Time Temperature Precipitation Wind Pressure Humidity
    00:00 +13°C° 0 mm 2 mps 717 mmHg 73%
    01:00 +12°C° 0 mm 1 mps 717 mmHg 77%
    02:00 +12°C° 0 mm 1 mps 717 mmHg 80%
    03:00 +11°C° 0 mm 1 mps 717 mmHg 82%
    04:00 +11°C° 0 mm 1 mps 717 mmHg 84%
    05:00 +11°C° 0 mm 1 mps 717 mmHg 84%
    06:00 +10°C° 0 mm 2 mps 718 mmHg 83%
    07:00 +12°C° 0 mm 2 mps 718 mmHg 83%
    08:00 +10°C° 0.7 mm 2 mps 718 mmHg 86%
    09:00 +9°C° 0.7 mm 3 mps 718 mmHg 89%
    10:00 +7°C° 0.7 mm 4 mps 718 mmHg 92%
    11:00 +8°C° 2.5 mm 3 mps 719 mmHg 92%
    12:00 +7°C° 2.5 mm 3 mps 719 mmHg 92%
    13:00 +7°C° 2.5 mm 2 mps 720 mmHg 93%
    14:00 +7°C° 1 mm 2 mps 720 mmHg 92%
    15:00 +7°C° 1 mm 2 mps 720 mmHg 92%
    16:00 +7°C° 1 mm 2 mps 720 mmHg 91%
    17:00 +7°C° 0.1 mm 2 mps 721 mmHg 91%
    18:00 +7°C° 0.1 mm 2 mps 721 mmHg 90%
    19:00 +7°C° 0.1 mm 2 mps 721 mmHg 90%
    20:00 +7°C° 0 mm 2 mps 721 mmHg 88%
    21:00 +6°C° 0 mm 2 mps 722 mmHg 87%
    22:00 +6°C° 0 mm 2 mps 722 mmHg 86%
    23:00 +6°C° 0.1 mm 2 mps 722 mmHg 85%

    27 April, Saturday

    Time Temperature Precipitation Wind Pressure Humidity
    00:00 +7°C° 0.1 mm 1 mps 722 mmHg 85%
    01:00 +8°C° 0.1 mm 1 mps 722 mmHg 84%
    02:00 +8°C° 0.2 mm 1 mps 722 mmHg 85%
    03:00 +8°C° 0.2 mm 1 mps 722 mmHg 87%
    04:00 +8°C° 0.2 mm 1 mps 722 mmHg 88%
    05:00 +8°C° 0.6 mm 1 mps 723 mmHg 90%
    06:00 +7°C° 0.6 mm 2 mps 723 mmHg 91%
    07:00 +7°C° 0.6 mm 2 mps 723 mmHg 93%
    08:00 +8°C° 0.8 mm 2 mps 723 mmHg 94%
    09:00 +8°C° 0.8 mm 2 mps 723 mmHg 94%
    10:00 +8°C° 0.8 mm 3 mps 724 mmHg 95%
    11:00 +8°C° 0.5 mm 3 mps 724 mmHg 94%
    12:00 +9°C° 0.5 mm 2 mps 724 mmHg 93%
    13:00 +9°C° 0.5 mm 2 mps 724 mmHg 92%
    14:00 +9°C° 0.5 mm 2 mps 724 mmHg 91%
    15:00 +10°C° 0.5 mm 2 mps 725 mmHg 90%
    16:00 +10°C° 0.5 mm 2 mps 725 mmHg 88%
    17:00 +9°C° 0.3 mm 2 mps 725 mmHg 89%
    18:00 +9°C° 0.3 mm 2 mps 726 mmHg 90%
    19:00 +9°C° 0.3 mm 1 mps 726 mmHg 92%
    20:00 +8°C° 0.1 mm 1 mps 727 mmHg 92%
    21:00 +8°C° 0.1 mm 1 mps 728 mmHg 92%
    22:00 +7°C° 0.1 mm 1 mps 729 mmHg 92%
    23:00 +7°C° 0 mm 1 mps 729 mmHg 92%

    28 April, Sunday

    Time Temperature Precipitation Wind Pressure Humidity
    00:00 +6°C° 0 mm 1 mps 729 mmHg 93%
    01:00 +6°C° 0 mm 1 mps 729 mmHg 93%
    02:00 +5°C° 0 mm 2 mps 729 mmHg 93%
    03:00 +4°C° 0 mm 2 mps 728 mmHg 92%
    04:00 +4°C° 0 mm 2 mps 728 mmHg 92%
    05:00 +5°C° 0 mm 2 mps 728 mmHg 90%
    06:00 +6°C° 0 mm 2 mps 728 mmHg 89%
    07:00 +6°C° 0 mm 2 mps 727 mmHg 87%
    08:00 +9°C° 0 mm 2 mps 727 mmHg 79%
    09:00 +12°C° 0 mm 1 mps 727 mmHg 71%
    10:00 +14°C° 0 mm 1 mps 727 mmHg 63%
    11:00 +15°C° 0 mm 1 mps 726 mmHg 62%
    12:00 +15°C° 0 mm 2 mps 726 mmHg 62%
    13:00 +16°C° 0 mm 2 mps 725 mmHg 61%
    14:00 +16°C° 0.1 mm 2 mps 725 mmHg 63%
    15:00 +16°C° 0.1 mm 2 mps 724 mmHg 66%
    16:00 +15°C° 0.1 mm 2 mps 724 mmHg 68%
    17:00 +14°C° 0.2 mm 2 mps 724 mmHg 76%
    18:00 +13°C° 0.2 mm 1 mps 724 mmHg 83%
    19:00 +12°C° 0.2 mm 1 mps 724 mmHg 90%
    20:00 +11°C° 0.3 mm 1 mps 724 mmHg 91%
    21:00 +11°C° 0.3 mm 1 mps 724 mmHg 93%
    22:00 +10°C° 0.3 mm 1 mps 725 mmHg 95%
    23:00 +10°C° 0.1 mm 1 mps 724 mmHg 95%
    Show more